Location: Casilda
(33.0440°S, 61.1680°W)
Time: 16:26:42
(UTC-03:00)

ISS - Pass Details

Date: 16 May 2022
Orbit: 414 x 421 km, 51.6° (Epoch: 25 May)

Event Time Altitude Azimuth Distance (km) Brightness Sun altitude
Rises 07:16:58 0° 352° (N) 2,348 0.2 -7.1°
Reaches altitude 10° 07:19:39 10° 15° (NNE) 1,497 -0.5 -6.6°
Maximum altitude 07:21:44 15° 53° (NE) 1,215 -0.1 -6.2°
Drops below altitude 10° 07:23:49 10° 92° (E) 1,513 0.4 -5.8°
Sets 07:26:33 0° 115° (ESE) 2,389 0.9 -5.2°
